Location: Newark
(25.6108°S, 54.5803°W)
Time: 05:31:51
(UTC+00:00)

deb Explorer IX - Pass Details

Date: 05 November 2020
Orbit: 538 x 1104 km, 38.8° (Epoch: 27 November)

Event Time Altitude Azimuth Distance (km) Brightness Sun altitude
Rises 23:56:18 0° 241° (WSW) 3,075 ? -25.1°
Reaches altitude 10° 23:58:52 10° 242° (WSW) 2,069 ? -25.6°
Enters shadow 00:02:53 59° 271° (W) 698 ? -26.3°
Maximum altitude 00:03:34 71° 326° (NW) 631 - -26.4°
Drops below altitude 10° 00:07:43 10° 50° (NE) 1,834 - -27.2°
Sets 00:09:52 0° 52° (NE) 2,694 - -27.6°
